{"data":{"norad_id":68793,"epoch":"2026-09-19T20:59:55.380192Z","epoch_age_seconds":113662,"freshness":"FRESH","line1":"1 68793U 26088B   26262.87494653  .00002337  00000+0  15731-3 0  9995","line2":"2 68793  97.5202  49.9130 0016471 135.4450 224.8105 15.07574556 22558","mean_motion":15.07574556,"eccentricity":0.0016471,"inclination_deg":97.5202,"raan_deg":49.913,"arg_perigee_deg":135.445,"mean_anomaly_deg":224.8105,"bstar":0.00015731,"rev_number":2255,"period_min":95.517664069677,"perigee_km":532.21323422129,"apogee_km":555.01486653143,"semimajor_km":6921.7510503764,"source":"CELESTRAK","updated_at":"2026-09-20T09:00:24.462513Z"}}